Retour au catalogue

STARLINK-30852

ActifCommunicationsVLEO
NORAD 58373·PAYLOAD·🇺🇸 United States

Lancé Nov 18, 2023 depuis Cape Canaveral Space Force Station

Loading…

Prochains Passages (prochaines 24 heures)

TLE

FraisSource: CelesTrak SupGP

Époque: Sep 15, 2026, 02:48 UTC

1 58373C 23177Y   26258.11715278  .00028101  00000+0  10182-2 0  2584
2 58373  43.0038   0.5975 0001636 275.0388 317.3799 15.27553216    18

Suivez STARLINK-30852 en temps réel avec AllMySat

Download on the App Store